Flag for Czech Republic Weather past 2 weeks in Prague, Czech Republic

Now
41 °F

Clear.


Feels Like: 31 °F
Forecast: 36 / 44 °F
Wind: 22 mph from Southwest

Location: Prague Ruzyne Airport

Current Time: Apr 1, 2015 at 12:08:59 AM

Latest Report: Mar 31, 2015 at 11:30 PM


Visibility: 10 mi

Pressure: 29.59 "Hg

Humidity: 61%

Dew point: 28 °F

Location of PragueLocation

Historic Weather in Prague — Graph

°F

Prague temperature yesterday

Maximum temperature yesterday: 57 °F (at 1:00 PM)
Minimum temperature yesterday: 32 °F (at 7:30 AM)
Average temperature yesterday: 43 °F

Past Weeks' High & Low Weather Summary

 TemperatureHumidityPressure
High61 °F (Mar 25, 2:00 PM)100% (Mar 31, 7:30 AM)30.39 "Hg (Mar 31, 7:30 AM)
Low25 °F (Mar 23, 5:00 AM)24% (Mar 19, 3:30 PM)29.24 "Hg (Mar 31, 12:00 PM)
Average43 °F67%29.94 "Hg
* Reported Mar 16 9:00 PM — Mar 31 10:30 PM, Prague, Weather by CustomWeather, © 2015

Note: Actual official high and low records may vary slightly from our data, if they occured in-between our weather recording intervals... More about our weather records

Advertising

Prague weather history for previous 24 hours

 ConditionsComfort  
Time TempWeatherWind HumidityBarometerVisibility
10:30 PM
Tue, Mar 31
41 °FClear.24 mph61%29.59 "Hg10 mi
10:00 PM41 °FClear.25 mph66%29.59 "Hg10 mi
9:30 PM39 °FPassing clouds.28 mph70%29.56 "HgN/A
9:00 PM41 °FSprinkles. Partly cloudy.37 mph70%29.56 "HgN/A
8:30 PM43 °FPassing clouds.30 mph61%29.53 "HgN/A
8:00 PM43 °FScattered clouds.31 mph61%29.50 "HgN/A
7:30 PM46 °FPassing clouds.30 mph53%29.47 "HgN/A
7:00 PM46 °FPassing clouds.29 mph57%29.45 "HgN/A
6:30 PM50 °FScattered clouds.32 mph54%29.39 "HgN/A
6:00 PM50 °FScattered clouds.37 mph58%29.36 "HgN/A
5:30 PM52 °FScattered clouds.33 mph54%29.36 "HgN/A
5:00 PM52 °FScattered clouds.39 mph54%29.33 "HgN/A
4:30 PM52 °FScattered clouds.32 mph62%29.33 "HgN/A
4:00 PM52 °FPartly sunny.36 mph62%29.33 "HgN/A
3:30 PM52 °FScattered clouds.36 mph72%29.33 "HgN/A
3:00 PM50 °FScattered clouds.29 mph76%29.30 "HgN/A
2:30 PM46 °FRain showers. More clouds than sun.15 mph87%29.33 "Hg4 mi
2:00 PM48 °FPartly sunny.14 mph82%29.30 "HgN/A
1:30 PM46 °FRain showers. Broken clouds.29 mph76%29.33 "Hg4 mi
1:04 PM55 °FPartly sunny.37 mph59%29.27 "HgN/A
1:00 PM57 °FPartly sunny.37 mph67%29.27 "HgN/A
12:30 PM52 °FScattered clouds.35 mph77%29.24 "HgN/A
12:00 PM50 °FScattered clouds.35 mph82%29.24 "HgN/A
11:30 AM48 °FRain showers. Partly sunny.26 mph87%29.27 "Hg4 mi
11:00 AM48 °FRain showers. Partly sunny.23 mph87%29.27 "Hg4 mi
10:30 AM48 °FSprinkles. Partly sunny.26 mph87%29.27 "HgN/A
10:00 AM45 °FPartly sunny.15 mph87%29.27 "HgN/A
9:30 AM39 °FLight rain. More clouds than sun.13 mph93%29.33 "HgN/A
9:00 AM36 °FLight rain. More clouds than sun.13 mph93%29.33 "HgN/A
8:30 AM36 °FLight rain. Low clouds.13 mph93%29.33 "Hg6 mi
8:00 AM34 °FLight rain. More clouds than sun.18 mph93%29.36 "Hg3 mi
7:30 AM32 °FSnow. Ice fog.16 mph100%29.42 "Hg1 mi
7:00 AM34 °FSnow. Fog.15 mph87%29.47 "Hg1 mi
6:30 AM34 °FLight rain. Low clouds.10 mph87%29.53 "Hg4 mi
6:00 AM36 °FLight rain. Overcast.10 mph81%29.56 "HgN/A
5:30 AM37 °FLight rain. Mostly cloudy.12 mph70%29.59 "HgN/A
5:00 AM37 °FOvercast.13 mph70%29.65 "HgN/A
4:30 AM36 °FClear.18 mph75%29.68 "Hg10 mi
4:00 AM36 °FClear.15 mph75%29.68 "Hg10 mi
3:30 AM36 °FClear.14 mph75%29.74 "Hg10 mi
3:00 AM36 °FClear.14 mph75%29.74 "Hg10 mi
2:30 AM34 °FClear.13 mph81%29.77 "Hg10 mi
2:00 AM34 °FClear.15 mph81%29.77 "Hg10 mi
1:30 AM34 °FClear.14 mph81%29.77 "Hg10 mi
1:00 AM36 °FClear.14 mph75%29.77 "Hg10 mi
12:30 AM36 °FClear.15 mph75%29.77 "Hg10 mi
12:00 AM36 °FClear.14 mph75%29.77 "Hg10 mi
Weather by CustomWeather, © 2015

See weather overviewHow to use our weather pages